Terminal Aerodrome Forecast
Issued by NWS Jackson, KY

Home | Current Version | Previous Version | Text Only | Print | Product List | Glossary On
Versions: 1 2 3 4 5 6 7 8 9 10 11 12 13
000
FTUS43 KJKL 171137
TAFLOZ
TAF
KLOZ 171137Z 1712/1812 30006KT 6SM -SHSN BKN015
     FM172300 VRB05KT P6SM SCT015=

USA.gov is the U.S. government's official web portal to all federal, state and local government web resources and services.